Regional Weather Roundup
Issued by NWS

Home | Current Version | Previous Version | Graphics & Text | Print | Product List | Glossary On
Versions: 1 2 3 4 5 6 7 8 9 10 11 12 13 14 15 16 17 18 19 20 21 22 23 24 25 26 27 28 29 30 31 32 33 34 35 36 37 38 39 40 41 42 43 44 45 46 47 48 49 50
000
ASUS43 KFSD 240510
RWRSD

WEATHER ROUNDUP FOR SOUTH DAKOTA
NATIONAL WEATHER SERVICE SIOUX FALLS SD
1200 AM CDT FRI OCT 24 2014

NOTE: "FAIR" INDICATES FEW OR NO CLOUDS BELOW 12,000 FEET WITH NO
SIGNIFICANT WEATHER AND/OR OBSTRUCTIONS TO VISIBILITY.


SDZ001>005-009-010-012>017-240600-
NORTHWEST AND NORTH CENTRAL SOUTH DAKOTA

CITY           SKY/WX    TMP DP  RH WIND       PRES   REMARKS
BUFFALO          N/A     51  27  39 W6        29.83R
FAITH            N/A     53  28  38 SW7       29.88R
MOBRIDGE       CLOUDY    48  41  76 SE5       29.83S
$$

SDZ012>016-024>037-041>051-057-063-072>074-240600-
SOUTHWEST AND SOUTH CENTRAL SOUTH DAKOTA

CITY           SKY/WX    TMP DP  RH WIND       PRES   REMARKS
RAPID CTY ARPT PTCLDY    43  34  70 NW3       29.92F
PIERRE         MOCLDY    47  36  65 CALM      29.84S
CUSTER         PTCLDY    42  26  53 W5        30.03R
ELLSWORTH AFB  PTCLDY    46  35  67 W7        29.92
PHILIP         PTCLDY    42  32  67 W7        29.89S
PINE RIDGE     PTCLDY    37  33  85 E3        29.95S
SPEARFISH      FAIR      48  32  53 SW5       29.94F
WINNER         FAIR      58  35  42 SW10      29.87S
$$

SDZ004>011-016>023-039-040-240600-
NORTHEAST SOUTH DAKOTA

CITY           SKY/WX    TMP DP  RH WIND       PRES   REMARKS
ABERDEEN       MOCLDY    40  38  93 CALM      29.85F
WATERTOWN      MOCLDY    50  44  80 SE8       29.89S
SISSETON         N/A     47  42  83 S6        29.84F
$$

SDZ017-020-022-023-036>040-048>070-240600-
SOUTHEAST SOUTH DAKOTA

CITY           SKY/WX    TMP DP  RH WIND       PRES   REMARKS
SIOUX FALLS    MOCLDY    56  47  71 S12       29.91F
HURON          MOCLDY    52  45  77 SE8       29.85F
CHAMBERLAIN    MOCLDY    48  41  76 S3        29.85S
MITCHELL       PTCLDY    54  49  83 S8        29.87F
YANKTON        PTCLDY    57  50  77 S10       29.91F
$$

ABBREVIATIONS USED IN REMARKS
   TC - TEMPERATURE IN CELSIUS
  WCI - WIND CHILL INDEX
   HX - HEAT INDEX
  VSB - VISIBILITY




USA.gov is the U.S. government's official web portal to all federal, state and local government web resources and services.